Regional Weather Roundup
Issued by NWS Little Rock, AR

Home | Current Version | Previous Version | Graphics & Text | Print | Product List | Glossary On
Versions: 1 2 3 4 5 6 7 8 9 10 11 12 13 14 15 16 17 18 19 20 21 22 23 24 25 26 27
000
ASUS44 KLZK 232205
RWRLZK

WEATHER ROUNDUP FOR ARKANSAS
NATIONAL WEATHER SERVICE LITTLE ROCK AR
500 PM CDT THU OCT 23 2014

NOTE: "FAIR" INDICATES FEW OR NO CLOUDS BELOW 12,000 FEET WITH NO
SIGNIFICANT WEATHER AND/OR OBSTRUCTIONS TO VISIBILITY.

ARZ001-003-010-029-232300-
NORTHWEST ARKANSAS

CITY           SKY/WX    TMP DP  RH WIND       PRES   REMARKS
FAYETTEVILLE   CLOUDY    62  54  74 CALM      30.12F
FORT SMITH     PTSUNNY   68  50  52 E5        30.11F
HARRISON       CLOUDY    63  54  72 S3        30.13F
BENTONVILLE    CLOUDY    61  54  77 S5        30.12S
ROGERS         CLOUDY    58  54  86 SE5       30.13S
SILOAM SPGS    CLOUDY    61  54  77 SE3       30.12F
HIGHFILL       CLOUDY    60  56  86 S3        30.11F
SPRINGDALE     CLOUDY    61  52  72 S5        30.14F
$$

ARZ004-005-016-232300-
NORTH CENTRAL ARKANSAS

CITY           SKY/WX    TMP DP  RH WIND       PRES   REMARKS
BATESVILLE     CLOUDY    57  50  77 CALM      30.15R
FLIPPIN        PTSUNNY   63  46  55 E7        30.14F
MTN HOME       CLOUDY    61  49  64 SE6       30.13F
$$

ARZ040-041-232300-
WEST CENTRAL ARKANSAS

CITY           SKY/WX    TMP DP  RH WIND       PRES   REMARKS
MENA           MOSUNNY   70  52  52 CALM      30.12F
MOUNT IDA      MOSUNNY   69  52  54 VRB3      30.10F
$$

ARZ009-017-025-026-028-232300-
NORTHEAST ARKANSAS

CITY           SKY/WX    TMP DP  RH WIND       PRES   REMARKS
CORNING        FAIR      57  46  67 NW3       30.16F
JONESBORO      CLOUDY    59  47  64 CALM      30.15F
NEWPORT        CLOUDY    58  47  66 NE6       30.16S
WALNUT RIDGE   CLOUDY    57  43  58 CALM      30.15F
BLYTHEVILLE    CLOUDY    61  45  55 NW7       30.15R
$$

ARZ022-023-033-042-044-232300-
CENTRAL ARKANSAS

CITY           SKY/WX    TMP DP  RH WIND       PRES   REMARKS
LITTLE ROCK    PTSUNNY   65  44  46 NE5       30.14F
N LITTLE ROCK  PTSUNNY   63  51  65 N3        30.14F
JACKSONVILLE   CLOUDY    63  46  54 N2        30.15R
SEARCY         CLOUDY    61  46  57 NE3       30.16S
HOT SPRINGS    MOSUNNY   67  46  47 W3        30.13S
RUSSELLVILLE   CLOUDY    64  49  57 CALM      30.12F
$$

ARZ036-232300-
EAST ARKANSAS

CITY           SKY/WX    TMP DP  RH WIND       PRES   REMARKS
WEST MEMPHIS   CLOUDY    61  45  55 N7        30.13F
$$

ARZ050-053-066-070-073-232300-
SOUTHWEST ARKANSAS

CITY           SKY/WX    TMP DP  RH WIND       PRES   REMARKS
ARKADELPHIA    FAIR      67  48  50 CALM      30.13F
CAMDEN         SUNNY     68  48  49 N5        30.13S
TEXARKANA      MOSUNNY   68  48  48 E3        30.11F
EL DORADO      SUNNY     66  48  52 N6        30.13F
DE QUEEN       SUNNY     68  52  56 SW5       30.09F
$$

ARZ056-057-069-232300-
SOUTHEAST ARKANSAS

CITY           SKY/WX    TMP DP  RH WIND       PRES   REMARKS
PINE BLUFF     MOSUNNY   65  45  48 E5        30.13F
STUTTGART      CLOUDY    63  45  51 NE8       30.14F
MONTICELLO     CLOUDY    63  49  60 NE3       30.13S

$$





USA.gov is the U.S. government's official web portal to all federal, state and local government web resources and services.